Location: Chippewa Lake
(41.0698°N, 81.9010°W)
Time: 02:11:46
(UTC+00:00)

Cosmos 2322 Rocket - Pass Details

Date: 09 May 2021
Orbit: 831 x 852 km, 71.0° (Epoch: 24 June)

Event Time Altitude Azimuth Distance (km) Brightness Sun altitude
Rises 09:06:54 0° 164° (SSE) 3,376 5.1 -12.0°
Reaches altitude 10° 09:09:50 10° 149° (SSE) 2,451 4.6 -11.6°
Maximum altitude 09:14:02 22° 101° (E) 1,765 4.5 -10.9°
Drops below altitude 10° 09:18:16 10° 52° (NE) 2,474 6.3 -10.3°
Sets 09:21:14 0° 38° (NE) 3,417 7.0 -9.8°
